Flag Weather past 2 weeks in Alexandria, Virginia, U.S.A.

Now
53 °F

Partly cloudy.


Feels Like: 51 °F
Forecast: 47 / 56 °F
Wind: 7 mph from South

Location: Reagan National Airport

Current Time: Nov 25, 2014 at 6:34:18 PM

Latest Report: Nov 25, 2014 at 5:52 PM


Visibility: 10 mi

Pressure: 30.09 "Hg

Humidity: 48%

Dew point: 34 °F

Location of AlexandriaLocation

Historic Weather in Alexandria — Graph

°F

Alexandria temperature yesterday

Maximum temperature yesterday: 74 °F (at 2:52 PM)
Minimum temperature yesterday: 55 °F (at 12:01 AM)
Average temperature yesterday: 66 °F

Past Weeks' High & Low Weather Summary

 TemperatureHumidityPressure
High74 °F (Nov 24, 2:52 PM)90% (Nov 12, 5:52 AM)30.57 "Hg (Nov 12, 5:52 AM)
Low22 °F (Nov 19, 4:52 AM)23% (Nov 18, 2:52 PM)29.57 "Hg (Nov 17, 3:00 PM)
Average46 °F51%30.11 "Hg
* Reported Nov 10 4:52 PM — Nov 25 4:52 PM, Alexandria, Weather by CustomWeather, © 2014

Note: Actual official high and low records may vary slightly from our data, if they occured in-between our weather recording intervals... More about our weather records

Advertising

Alexandria weather history for previous 24 hours

 ConditionsComfort  
Time TempWeatherWind HumidityBarometerVisibility
4:52 PM
Nov 25
55 °FPartly cloudy.5 mph40%30.07 "Hg10 mi
3:52 PM56 °FPartly sunny.3 mph44%30.05 "Hg10 mi
2:52 PM56 °FMore clouds than sun.5 mph46%30.04 "Hg10 mi
1:52 PM57 °FCloudy.8 mph39%30.04 "Hg10 mi
12:52 PM57 °FMore clouds than sun.6 mph39%30.06 "Hg10 mi
11:52 AM56 °FMostly cloudy.8 mph42%30.08 "Hg10 mi
10:52 AM56 °FMostly cloudy.8 mph42%30.07 "Hg10 mi
9:52 AM56 °FMore clouds than sun.7 mph44%30.08 "Hg10 mi
8:52 AM56 °FMostly cloudy.9 mph44%30.04 "Hg10 mi
7:52 AM56 °FMore clouds than sun.9 mph46%30.01 "Hg10 mi
6:52 AM56 °FMostly cloudy.14 mph49%29.98 "Hg10 mi
5:52 AM59 °FOvercast.8 mph46%29.96 "Hg10 mi
4:52 AM60 °FMostly cloudy.17 mph47%29.92 "Hg10 mi
3:52 AM58 °FMostly cloudy.No wind84%29.87 "Hg9 mi
2:52 AM59 °FMostly cloudy.3 mph87%29.85 "Hg10 mi
1:52 AM60 °FHigh level clouds.3 mph80%29.81 "Hg10 mi
12:52 AM69 °FHigh level clouds.9 mph66%29.78 "Hg10 mi
11:52 PM
Nov 24
68 °FHigh level clouds.15 mph73%29.78 "Hg10 mi
10:52 PM68 °FHigh level clouds.15 mph70%29.79 "Hg10 mi
9:52 PM67 °FPassing clouds.15 mph71%29.78 "Hg10 mi
8:52 PM63 °FPassing clouds.8 mph70%29.72 "Hg10 mi
7:52 PM63 °FPassing clouds.10 mph68%29.72 "Hg10 mi
6:52 PM67 °FClear.12 mph59%29.69 "Hg10 mi
Weather by CustomWeather, © 2014

See weather overviewHow to use our weather pages